Weather History for West Palm Beach, FL

Change the Weather History Date:

Monday, April 1, 2013

  Actual Average Record
Temperature  
Mean Temperature 79 °F 72 °F  
Max Temperature 88 °F 80 °F 92 °F (1949)
Min Temperature 69 °F 64 °F 45 °F (1925)
Degree Days  
Heating Degree Days 0 0  
Month to date heating degree days 0 0  
Since 1 July heating degree days 164 229  
Cooling Degree Days 14 7  
Month to date cooling degree days 14 7  
Year to date cooling degree days 485 435  
Growing Degree Days 28 (Base 50)    
Moisture  
Dew Point 64 °F    
Average Humidity 64    
Maximum Humidity 90    
Minimum Humidity 37    
Precipitation  
Precipitation T in 0.15 in 4.31 in (1909)
Month to date precipitation T 0.15  
Year to date precipitation 4.16 10.69  
Snow  
Snow 0.00 in - - ()
Month to date snowfall 0.0  
Since 1 July snowfall 0.0  
Snow Depth 0.00 in    
Sea Level Pressure  
Sea Level Pressure 30.00 in    
Wind  
Wind Speed 10 mph (SSW)    
Max Wind Speed 22 mph    
Max Gust Speed 29 mph    
Visibility 10 miles    
Events      
T = Trace of Precipitation, MM = Missing Value Source: NWS Daily Summary

Daily Weather History Graph

Daily Weather History Graph

Search for Another Location

Airport:

Trip Planner

Search our weather history database for the weather conditions in past years. The results will help you decide how hot, cold, wet, or windy it might be!

Date:

Astronomy

Apr. 01, 2013 Rise Set
Actual Time 7:10 AM EDT 7:37 PM EDT
Civil Twilight 6:47 AM EDT 8:01 PM EDT
Nautical Twilight 6:20 AM EDT 8:28 PM EDT
Astronomical Twilight 5:52 AM EDT 8:55 PM EDT
Moon 12:20 AM EDT (4/1) 11:19 AM EDT (4/1)
Length of Visible Light 13h 13m
Length of Day
12h 26m
Waning Gibbous, 67% of the Moon is Illuminated
Apr 1
Waning Gibbous
Apr 3
Last Quarter
Apr 10
New
Apr 18
First Quarter
Apr 25
Full

Hourly Weather History & Observations

Time (EDT) Temp. Heat Index Dew Point Humidity Pressure Visibility Wind Dir Wind Speed Gust Speed Precip Events Conditions
12:53 AM 70.0 °F - 64.0 °F 81% 30.05 in 10.0 mi South 4.6 mph - N/A   Partly Cloudy
1:53 AM 71.1 °F - 64.9 °F 81% 30.04 in 10.0 mi South 3.5 mph - N/A   Mostly Cloudy
2:53 AM 73.0 °F - 66.0 °F 79% 30.01 in 10.0 mi SSE 11.5 mph - N/A   Mostly Cloudy
3:53 AM 72.0 °F - 66.0 °F 81% 30.00 in 10.0 mi SSE 6.9 mph - N/A   Scattered Clouds
4:53 AM 72.0 °F - 66.9 °F 84% 30.00 in 10.0 mi South 5.8 mph - N/A   Scattered Clouds
5:53 AM 71.1 °F - 66.9 °F 87% 30.00 in 10.0 mi South 5.8 mph - N/A   Mostly Cloudy
6:53 AM 70.0 °F - 66.9 °F 90% 30.01 in 10.0 mi South 4.6 mph - N/A   Mostly Cloudy
7:53 AM 69.1 °F - 66.9 °F 93% 30.03 in 10.0 mi WNW 3.5 mph - N/A   Mostly Cloudy
8:53 AM 73.9 °F - 69.1 °F 85% 30.05 in 10.0 mi SSW 5.8 mph - N/A   Mostly Cloudy
9:53 AM 78.1 °F - 69.1 °F 74% 30.05 in 10.0 mi South 10.4 mph - N/A   Mostly Cloudy
10:53 AM 81.0 °F 82.5 °F 64.0 °F 56% 30.04 in 10.0 mi SW 11.5 mph 23.0 mph N/A   Mostly Cloudy
11:53 AM 82.9 °F 83.3 °F 61.0 °F 47% 30.04 in 10.0 mi SW 17.3 mph 28.8 mph N/A   Mostly Cloudy
12:53 PM 84.0 °F 84.4 °F 61.0 °F 46% 30.02 in 10.0 mi WSW 11.5 mph 20.7 mph 0.00 in   Mostly Cloudy
1:53 PM 86.0 °F 85.7 °F 60.1 °F 41% 30.00 in 10.0 mi SW 17.3 mph 23.0 mph N/A   Mostly Cloudy
2:53 PM 86.0 °F 85.0 °F 57.9 °F 38% 29.97 in 10.0 mi WSW 18.4 mph 24.2 mph N/A   Mostly Cloudy
3:53 PM 84.9 °F 83.9 °F 57.0 °F 38% 29.95 in 10.0 mi WSW 10.4 mph 23.0 mph N/A   Mostly Cloudy
4:53 PM 84.9 °F 84.2 °F 57.9 °F 40% 29.94 in 10.0 mi West 12.7 mph - 0.00 in   Mostly Cloudy
5:32 PM 78.8 °F - 66.2 °F 65% 29.95 in 10.0 mi South 12.7 mph - N/A   Mostly Cloudy
5:53 PM 79.0 °F - 63.0 °F 58% 29.95 in 10.0 mi South 19.6 mph 24.2 mph N/A   Mostly Cloudy
6:53 PM 80.1 °F 81.2 °F 62.1 °F 54% 29.96 in 10.0 mi South 8.1 mph - N/A   Scattered Clouds
7:53 PM 78.1 °F - 62.1 °F 58% 29.97 in 10.0 mi SSW 8.1 mph - N/A   Partly Cloudy
8:53 PM 75.9 °F - 64.0 °F 67% 29.99 in 10.0 mi SW 6.9 mph - N/A   Partly Cloudy
9:53 PM 73.9 °F - 63.0 °F 68% 30.01 in 10.0 mi SW 6.9 mph - N/A   Partly Cloudy
10:53 PM 73.0 °F - 61.0 °F 66% 30.02 in 10.0 mi West 6.9 mph - N/A   Partly Cloudy
11:53 PM 72.0 °F - 63.0 °F 73% 30.02 in 10.0 mi West 9.2 mph - N/A   Partly Cloudy